This is the latest recevied weather packets stored in our database for station/object N9CQS-13. If no packets are shown the sender has not sent any weather packets the latest 10 day(s).
| Time | Temp. | Humidity | Pressure | Rain* | Wind** | Luminosity | Snow |
|---|---|---|---|---|---|---|---|
| 1777555292 | 7.78° C | 86% | 1019.2 hPa | 0 mm | - | - | - |
| 1777554692 | 7.22° C | 87% | 1019.2 hPa | 0 mm | - | - | - |
| 1777554092 | 6.67° C | 90% | 1019.1 hPa | 0 mm | - | - | - |
| 1777552891 | 5.56° C | 91% | 1019.2 hPa | 0 mm | - | - | - |
| 1777552292 | 5.56° C | 91% | 1019.3 hPa | 0 mm | - | - | - |
| 1777551692 | 5° C | 92% | 1019.1 hPa | 0 mm | - | - | - |
| 1777551092 | 4.44° C | 93% | 1019.1 hPa | 0 mm | - | - | - |
| 1777550491 | 4.44° C | 93% | 1019 hPa | 0 mm | - | - | - |
| 1777549892 | 4.44° C | 93% | 1018.8 hPa | 0 mm | - | - | - |
| 1777549292 | 3.89° C | 93% | 1019 hPa | 0 mm | - | - | - |
| 1777548692 | 3.89° C | 92% | 1018.8 hPa | 0 mm | - | - | - |
| 1777548091 | 3.33° C | 92% | 1018.8 hPa | 0 mm | - | - | - |
| 1777547493 | 3.89° C | 92% | 1018.7 hPa | 0 mm | - | - | - |
| 1777546893 | 3.33° C | 91% | 1018.6 hPa | 0 mm | - | - | - |
| 1777546293 | 3.89° C | 91% | 1018.7 hPa | 0 mm | - | - | - |
| 1777545693 | 3.89° C | 91% | 1018.7 hPa | 0 mm | - | - | - |
| 1777545092 | 3.89° C | 91% | 1018.8 hPa | 0 mm | - | - | - |
| 1777544492 | 3.89° C | 92% | 1018.7 hPa | 0 mm | - | - | - |
| 1777543891 | 3.89° C | 91% | 1018.7 hPa | 0 mm | - | - | - |
| 1777543291 | 3.89° C | 91% | 1018.8 hPa | 0 mm | - | - | - |
| 1777542692 | 3.89° C | 92% | 1018.9 hPa | 0 mm | - | - | - |
| 1777542092 | 4.44° C | 92% | 1018.8 hPa | 0 mm | - | - | - |
| 1777541492 | 3.89° C | 92% | 1019 hPa | 0 mm | - | - | - |
| 1777540891 | 3.89° C | 92% | 1019 hPa | 0 mm | - | - | - |
| 1777540291 | 4.44° C | 92% | 1019 hPa | 0 mm | - | - | - |
* Rain latest hour (hover to see other rain measurements)
** Current wind speed in m/s (hover to see current wind gust speed)